Regional Weather Roundup
Issued by NWS Sioux Falls, SD

Home | Current Version | Previous Version | Text Only | Print | Product List | Glossary On
Versions: 1 2 3 4 5 6 7 8 9 10 11 12 13 14 15 16 17 18 19 20 21 22 23 24 25 26 27 28 29 30 31 32 33 34 35 36 37 38 39 40 41 42 43 44 45 46 47 48 49 50
864
ASUS43 KFSD 232310
RWRFSD

WEATHER ROUNDUP FOR SE SOUTH DAKOTA/SW MINNESOTA/NW IOWA
NATIONAL WEATHER SERVICE SIOUX FALLS SD
600 PM CDT THU MAR 23 2017

NOTE: "FAIR" INDICATES FEW OR NO CLOUDS BELOW 12,000 FEET WITH NO
SIGNIFICANT WEATHER AND OR OBSTRUCTIONS TO VISIBILITY.


SDZ038>040-050-052>070-240000-
SOUTHEAST SOUTH DAKOTA

CITY           SKY/WX    TMP DP  RH WIND       PRES   REMARKS
BROOKINGS      CLOUDY    41  39  93 SE10      29.69S
CHAMBERLAIN    CLOUDY    54  51  90 E8        29.65R
HURON          CLOUDY    45  43  93 E9        29.67R
MADISON        CLOUDY    41  41 100 SE7       29.68F
MITCHELL       CLOUDY    49  46  90 SE7       29.66R FOG
SIOUX FALLS    CLOUDY    49  42  77 E7        29.68S
WINNER         FAIR      61  48  62 S9        29.61R
YANKTON        CLOUDY    57  50  77 S6        29.64R
$$

MNZ071-072-080-081-089-090-097-098-240000-
SOUTHWEST MINNESOTA

CITY           SKY/WX    TMP DP  RH WIND       PRES   REMARKS
FAIRMONT       CLOUDY    41  35  79 SE14G28   29.77S
JACKSON        CLOUDY    43  34  70 SE15      29.73F
LUVERNE        CLOUDY    45  36  70 E6        29.70S
MARSHALL       CLOUDY    37  36  93 SE12      29.75F
MONTEVIDEO     RAIN      37  37 100 S13       29.79S
PIPESTONE      DRIZZLE   43  36  75 SE8       29.70S
REDWOOD FALLS  CLOUDY    38  34  85 SE14      29.77F FOG
TRACY          CLOUDY    40  37  87 SE7       29.74F
WINDOM         CLOUDY    41  34  75 E10       29.73F
WORTHINGTON    CLOUDY    43  35  73 SE13      29.73R
$$

IAZ001>003-012>014-020>022-031-032-NEZ013-014-SDZ071-240000-
NORTHWEST IOWA

CITY           SKY/WX    TMP DP  RH WIND       PRES   REMARKS
CHEROKEE       CLOUDY    53  44  71 SE13G20   29.69F
DENISON        MOSUNNY   59  43  55 SE12      29.69S
ESTHERVILLE    CLOUDY    40  36  86 NE9       29.76F
LE MARS        CLOUDY    57  45  62 SE8       29.69F
ORANGE CITY    CLOUDY    55  46  71 S8        29.69R
SHELDON        CLOUDY    46  46 100 SE12      29.70R
SIOUX CITY     CLOUDY    59  45  59 SE13      29.67S
SPENCER        CLOUDY    46  39  76 E9        29.72R
STORM LAKE     CLOUDY    50  41  71 SE17      29.71F
$$

ABBREVIATIONS USED IN REMARKS
   TC - TEMPERATURE IN CELSIUS
  WCI - WIND CHILL INDEX
   HX - HEAT INDEX
  VSB - VISIBILITY





USA.gov is the U.S. government's official web portal to all federal, state and local government web resources and services.